Tracking 27380 objects as of 5-Jun-2023
HD Live streaming from Space Station
objects crossing your sky now

DELTA 1 DEB

Track DELTA 1 DEB now!
10-day predictions


NORAD ID: 9979
Int'l Code: 1973-086GJ
Perigee: 1,431.2 km
Apogee: 2,406.9 km
Inclination: 101.9 °
Period: 125.2 minutes
Semi major axis: 8290 km
RCS: 0.0244 m2 (small)
Launch date: November 6, 1973
Source: United States (US)
Launch site: AIR FORCE WESTERN TEST RANGE (AFWTR)

Note: This is SATELLITE DEBRIS
Your satellite tracking list
Your tracking list is empty




NASA's NSSDC Master Catalog

Two Line Element Set (TLE):
1 09979U 73086GJ  23152.19225344  .00000786  00000-0  12219-1 0  9998
2 09979 101.9440 246.6051 0588503 287.9944  93.6977 11.50180085392038
Source of the keplerian elements: AFSPC